| time (UTC) | temp C | wind direction | speed KPH | gust KPH | rain 1hr cm | rain 24hr cm | rain mn cm | humidity % | barometer mb |
| 20260503024500 | 8 | 25 | 1.6 | 1.6 | 0.00 | 0.00 | 0.00 | 94 | 1008.2 |
| 20260503023000 | 8 | 0 | 0.0 | 1.6 | 0.00 | 0.00 | 0.00 | 94 | 1008.3 |
| 20260503021500 | 8 | 0 | 0.0 | 0.0 | 0.00 | 0.00 | 0.00 | 94 | 1008.5 |
| 20260503020000 | 8 | 0 | 0.0 | 0.0 | 0.00 | 0.00 | 0.00 | 94 | 1008.5 |
| 20260503014500 | 8 | 0 | 0.0 | 0.0 | 0.00 | 0.00 | 0.00 | 93 | 1008.7 |
| 20260503013000 | 8 | 0 | 0.0 | 0.0 | 0.00 | 0.00 | 0.00 | 93 | 1008.8 |
| 20260503011500 | 9 | 0 | 0.0 | 1.6 | 0.00 | 0.00 | 0.00 | 93 | 1008.8 |
| 20260503010000 | 9 | 55 | 0.0 | 0.0 | 0.00 | 0.00 | 0.00 | 93 | 1008.5 |
| 20260503004500 | 9 | 89 | 1.6 | 0.0 | 0.00 | 0.00 | 0.00 | 92 | 1008.5 |
| 20260503003000 | 9 | 0 | 0.0 | 0.0 | 0.00 | 0.00 | 0.00 | 92 | 1008.5 |
| 20260503001500 | 9 | 0 | 0.0 | 1.6 | 0.00 | 0.00 | 0.00 | 92 | 1008.5 |
| 20260503000000 | 9 | 147 | 1.6 | 0.0 | 0.00 | 0.00 | 0.00 | 91 | 1008.6 |
| 20260502234500 | 9 | 0 | 0.0 | 0.0 | 0.00 | 0.00 | 0.00 | 91 | 1008.6 |
| 20260502233000 | 9 | 0 | 0.0 | 0.0 | 0.00 | 0.00 | 0.00 | 90 | 1008.6 |
| 20260502231500 | 9 | 0 | 0.0 | 3.2 | 0.00 | 0.00 | 0.00 | 90 | 1008.6 |
| 20260502230000 | 9 | 0 | 0.0 | 0.0 | 0.00 | 0.00 | 0.00 | 90 | 1008.6 |
| 20260502224500 | 9 | 0 | 0.0 | 1.6 | 0.00 | 0.00 | 0.00 | 90 | 1008.6 |
| 20260502223000 | 10 | 0 | 0.0 | 1.6 | 0.00 | 0.00 | 0.00 | 89 | 1008.7 |
| 20260502221500 | 10 | 0 | 0.0 | 1.6 | 0.00 | 0.00 | 0.00 | 88 | 1008.5 |
| 20260502220000 | 10 | 284 | 1.6 | 4.8 | 0.00 | 0.00 | 0.00 | 87 | 1008.5 |
| 20260502214500 | 10 | 0 | 0.0 | 1.6 | 0.00 | 0.00 | 0.00 | 86 | 1008.1 |
| 20260502213000 | 10 | 0 | 0.0 | 1.6 | 0.00 | 0.00 | 0.00 | 87 | 1008.2 |
| 20260502211500 | 10 | 0 | 0.0 | 3.2 | 0.00 | 0.00 | 0.00 | 87 | 1008.3 |
| 20260502210000 | 10 | 122 | 1.6 | 4.8 | 0.00 | 0.00 | 0.00 | 87 | 1008.5 |
| 20260502204500 | 10 | 201 | 6.4 | 1.6 | 0.00 | 0.00 | 0.00 | 87 | 1008.6 |
| 20260502203000 | 10 | 186 | 3.2 | 1.6 | 0.00 | 0.00 | 0.00 | 87 | 1008.6 |
| 20260502201500 | 10 | 186 | 1.6 | 6.4 | 0.00 | 0.00 | 0.00 | 86 | 1008.7 |
| 20260502200000 | 10 | 112 | 0.0 | 4.8 | 0.00 | 0.00 | 0.00 | 87 | 1008.9 |
| 20260502194500 | 10 | 0 | 0.0 | 6.4 | 0.00 | 0.00 | 0.00 | 87 | 1009.1 |
| 20260502193000 | 10 | 132 | 0.0 | 4.8 | 0.00 | 0.00 | 0.00 | 86 | 1009.2 |
| 20260502191500 | 11 | 152 | 3.2 | 3.2 | 0.00 | 0.00 | 0.00 | 85 | 1009.3 |
| 20260502190000 | 10 | 145 | 0.0 | 4.8 | 0.00 | 0.00 | 0.00 | 84 | 1009.4 |
| 20260502184500 | 10 | 139 | 3.2 | 6.4 | 0.00 | 0.00 | 0.00 | 83 | 1009.4 |
| 20260502183000 | 10 | 138 | 3.2 | 6.4 | 0.00 | 0.00 | 0.00 | 82 | 1009.7 |
| 20260502181500 | 11 | 140 | 6.4 | 3.2 | 0.00 | 0.00 | 0.00 | 79 | 1009.7 |
| 20260502163000 | 11 | 173 | 6.4 | 6.4 | 0.00 | 0.00 | 0.00 | 79 | 1009.9 |
| 20260502161500 | 11 | 197 | 4.8 | 11.3 | 0.00 | 0.00 | 0.00 | 78 | 1009.5 |
| 20260502151500 | 12 | 134 | 3.2 | 9.7 | 0.00 | 0.00 | 0.00 | 78 | 1010.9 |
| 20260502123000 | 10 | 231 | 3.2 | 3.2 | 0.00 | 0.00 | 0.00 | 81 | 1010.9 |
| 20260502121500 | 10 | 147 | 1.6 | 3.2 | 0.00 | 0.00 | 0.00 | 81 | 1010.5 |
| 20260502114500 | 10 | 213 | 3.2 | 6.4 | 0.00 | 0.00 | 0.00 | 84 | 1010.4 |
| 20260502113000 | 9 | 185 | 0.0 | 1.6 | 0.00 | 0.00 | 0.00 | 82 | 1010.3 |
| 20260502111500 | 9 | 183 | 1.6 | 1.6 | 0.00 | 0.00 | 0.00 | 81 | 1010.1 |
| 20260502110000 | 9 | 10 | 0.0 | 3.2 | 0.00 | 0.00 | 0.00 | 82 | 1010.3 |
| 20260502104500 | 8 | 202 | 0.0 | 0.0 | 0.00 | 0.00 | 0.00 | 83 | 1010.4 |
| 20260502103000 | 8 | 202 | 3.2 | 4.8 | 0.00 | 0.00 | 0.00 | 83 | 1010.0 |
| 20260502101500 | 8 | 0 | 0.0 | 0.0 | 0.00 | 0.00 | 0.00 | 82 | 1010.0 |
| 20260502091500 | 8 | 0 | 0.0 | 0.0 | 0.00 | 0.00 | 0.00 | 78 | 1009.9 |
| 20260502071500 | 8 | 0 | 0.0 | 0.0 | 0.00 | 0.00 | 0.00 | 79 | 1010.2 |
| 20260502070000 | 8 | 0 | 0.0 | 0.0 | 0.00 | 0.00 | 0.00 | 77 | 1010.0 |
| 20260502064500 | 8 | 0 | 0.0 | 1.6 | 0.00 | 0.00 | 0.00 | 75 | 1010.0 |
| 20260502063000 | 8 | 140 | 0.0 | 3.2 | 0.00 | 0.00 | 0.00 | 76 | 1010.2 |
| 20260502061500 | 8 | 0 | 0.0 | 0.0 | 0.00 | 0.00 | 0.00 | 78 | 1010.1 |
| 20260502060000 | 8 | 0 | 0.0 | 0.0 | 0.00 | 0.00 | 0.00 | 78 | 1010.2 |
| 20260502054500 | 9 | 0 | 0.0 | 1.6 | 0.00 | 0.00 | 0.00 | 77 | 1010.2 |
| 20260502053000 | 8 | 0 | 0.0 | 0.0 | 0.00 | 0.00 | 0.00 | 76 | 1010.4 |
| 20260502051500 | 8 | 343 | 0.0 | 0.0 | 0.00 | 0.00 | 0.00 | 74 | 1010.5 |
| 20260502050000 | 8 | 0 | 0.0 | 1.6 | 0.00 | 0.00 | 0.00 | 75 | 1010.5 |
| 20260502044500 | 8 | 0 | 0.0 | 1.6 | 0.00 | 0.00 | 0.00 | 75 | 1010.6 |
| 20260502043000 | 8 | 358 | 0.0 | 1.6 | 0.00 | 0.00 | 0.00 | 75 | 1010.5 |
| 20260502041500 | 8 | 0 | 0.0 | 0.0 | 0.00 | 0.00 | 0.00 | 75 | 1010.7 |
| 20260502040000 | 8 | 302 | 0.0 | 1.6 | 0.00 | 0.00 | 0.00 | 75 | 1010.6 |
| 20260502034500 | 8 | 0 | 0.0 | 1.6 | 0.00 | 0.00 | 0.00 | 76 | 1010.7 |
| 20260502033000 | 9 | 0 | 0.0 | 0.0 | 0.00 | 0.00 | 0.00 | 75 | 1010.8 |
| 20260502031500 | 9 | 262 | 1.6 | 3.2 | 0.00 | 0.00 | 0.00 | 73 | 1010.5 |
| 20260502030000 | 10 | 263 | 3.2 | 3.2 | 0.00 | 0.00 | 0.00 | 70 | 1010.6 |